[[{"header":{"parameterUnit":"m.s-1","parameterCategory":1,"la1":30.2991,"la2":30.254,"lo1":-89.0895,"lo2":-89.0444,"dy":0.0017,"dx":0.0017,"nx":28,"ny":28,"refTime":"2025-12-11T09:00:00:Z","depth":0,"parameterNumber":2,"parameterNumberName":"U-component_of_WINDS"},"data":[0,0,0,0,0,0,0,0,0,0,0,0,0,0,0,0,0,0,0,0,0,0,0,0,0,0,0,0,0,0,0,0,0,0,0,0,0,0,0,0,0,0,0,0,0,0,0,0,0,0,0,0,0,0,0,0,0,0,1.0614,1.0615,0,1.0659,1.0659,1.066,1.0632,1.0631,1.063,1.0629,1.0671,1.0673,1.0675,0,0,0,0,0,0,0,0,0,0,0,0,0,1.0502,1.0504,1.0614,1.0615,1.0615,1.0659,1.0659,1.066,1.0633,1.0631,1.0629,1.0628,1.067,1.0673,1.0675,0,0,0,0,0,0,0,0,0,0,0,0,0,1.0549,1.0505,1.0614,1.0607,1.0607,1.0658,1.0659,1.066,1.0633,1.0631,1.0629,1.0627,1.0669,1.0672,1.0676,1.0736,0,0,1.0686,1.0688,0,0,0,0,0,0,0,0,1.0546,1.0553,1.0608,1.0608,1.0608,1.0638,1.0635,1.0685,1.0633,1.0623,1.0629,1.0626,1.0661,1.0665,1.0678,1.0738,1.0739,1.0687,1.0689,1.069,1.0691,0,0,0,0,0,0,0,1.0543,1.0551,1.0632,1.0608,1.0608,1.06,1.0605,1.0644,1.0652,1.0624,1.0622,1.0628,1.0661,1.0674,1.0678,1.074,1.0687,1.069,1.0692,1.0693,1.0849,1.0851,0,0,0,0,0,0,1.0541,1.0548,1.063,1.0633,1.0572,1.0604,1.0609,1.063,1.0652,1.0653,1.0629,1.0626,1.0669,1.0674,1.068,1.075,1.069,1.0694,1.0696,1.0847,1.085,1.0852,0,0,0,0,0,0,1.0538,1.0548,1.0628,1.059,1.06,1.0608,1.0632,1.0632,1.0646,1.0656,1.0657,1.0642,1.0668,1.0675,1.0722,1.0751,1.0695,1.0698,1.0845,1.0848,1.0851,1.0891,0,0,0,0,0,0,1.0535,1.0548,1.0571,1.0591,1.0602,1.0671,1.0634,1.0634,1.0652,1.0648,1.0668,1.0669,1.0667,1.0717,1.0725,1.0754,1.0701,1.0842,1.0846,1.085,1.0887,1.0895,1.0902,0,0,0,0,0,1.0531,1.0581,1.0573,1.0583,1.0632,1.0673,1.0679,1.0676,1.0655,1.0678,1.0684,1.0669,1.0747,1.0722,1.0731,1.0762,1.084,1.0845,1.085,1.0884,1.0894,1.0902,0,0,0,0,0,0,1.0563,1.0583,1.0575,1.0632,1.0651,1.0668,1.0697,1.0687,1.0712,1.0707,1.0702,1.0706,1.0755,1.0763,1.0735,1.082,1.079,1.0797,1.0813,1.0822,1.0829,1.0825,1.0704,0,0,0,0,0,1.0577,1.061,1.0625,1.0674,1.0684,1.0689,1.0707,1.0703,1.0722,1.073,1.074,1.0758,1.0786,1.0805,1.0831,1.0889,1.0891,1.0914,1.0922,1.0928,1.0933,1.0962,1.0972,1.0867,1.0867,1.0867,0,0,1.0606,1.0621,1.0642,1.0681,1.0695,1.0728,1.0696,1.0732,1.0755,1.0735,1.0779,1.0788,1.0807,1.0859,1.0882,1.0867,1.0963,1.0934,1.0938,1.094,1.0968,1.0978,1.0986,1.087,1.087,1.0869,0,0,1.0675,1.069,1.0732,1.0747,1.0769,1.0772,1.0782,1.0801,1.0806,1.0851,1.0835,1.0863,1.0912,1.0926,1.094,1.1013,1.0999,1.1022,1.106,1.1088,1.1096,1.1103,1.1128,1.1137,1.1027,1.1028,1.1028,0,1.0707,1.0756,1.0754,1.0791,1.0808,1.0792,1.0833,1.0847,1.0877,1.0888,1.0872,1.0932,1.0945,1.0998,1.1016,1.1029,1.1038,1.1019,1.1096,1.1103,1.1109,1.1132,1.1142,1.103,1.103,1.1029,1.1029,0,1.0794,1.0829,1.0859,1.0889,1.0909,1.0948,1.0951,1.0971,1.0966,1.097,1.1015,1.1029,1.1058,1.1071,1.1065,1.1123,1.1113,1.1096,1.1066,1.1122,1.1143,1.1152,1.1034,1.1033,1.1032,1.1031,0,0,1.0883,1.0911,1.0922,1.0935,1.0958,1.0984,1.1021,1.105,1.1067,1.1088,1.1118,1.116,1.1144,1.116,1.1156,1.1181,1.1235,1.1161,1.1161,1.1172,1.1298,1.1309,1.132,1.1227,1.1229,1.123,1.1296,0,1.0951,1.1018,1.1017,1.1078,1.1108,1.1093,1.1126,1.1143,1.1147,1.1173,1.1178,1.1207,1.1185,1.1194,1.1218,1.1224,1.126,1.1219,1.1253,1.1254,1.1247,1.1331,1.1343,1.1405,1.1304,1.1306,1.1307,0,1.104,1.1064,1.1129,1.1146,1.1159,1.1188,1.1214,1.1239,1.1257,1.1259,1.1276,1.1268,1.1304,1.1274,1.1323,1.1295,1.1308,1.1313,1.1315,1.1317,1.1282,1.1333,1.1424,1.1433,1.132,1.1319,1.1318,0,1.1096,1.1145,1.1189,1.1201,1.1223,1.1244,1.1254,1.127,1.1287,1.1309,1.132,1.1346,1.1359,1.1379,1.1377,1.1356,1.1426,1.1396,1.1427,1.1427,1.1441,1.1439,1.1533,1.1453,1.1453,1.1452,1.1452,0,1.1171,1.1211,1.1215,1.1242,1.1285,1.1283,1.1325,1.1333,1.1347,1.1374,1.1363,1.1388,1.1386,1.1411,1.141,1.1449,1.1456,1.1457,1.1456,1.1457,1.1457,1.1465,1.1459,1.1455,1.1454,1.1454,1.1453,0,1.124,1.1245,1.1292,1.1309,1.1315,1.1345,1.1359,1.1384,1.1388,1.1423,1.143,1.1436,1.1465,1.1466,1.1499,1.1499,1.1546,1.1541,1.154,1.1538,1.1568,1.1565,1.1669,1.1682,1.1595,1.1595,1.1596,0,1.1287,1.1317,1.1338,1.1356,1.1367,1.1396,1.1413,1.1412,1.1431,1.1453,1.1475,1.1503,1.1525,1.1572,1.1578,1.1603,1.1597,1.1632,1.1601,1.16,1.1595,1.1593,1.1595,1.1638,1.1639,1.1639,1.164,0,1.1369,1.137,1.1396,1.1423,1.1444,1.1465,1.1484,1.1499,1.15,1.1521,1.1551,1.1568,1.1602,1.1629,1.1653,1.1662,1.165,1.165,1.1658,1.1659,1.1656,1.1656,1.1555,1.1647,1.1647,1.1646,1.1646,1.1645,1.1427,1.1452,1.1471,1.15,1.1514,1.1533,1.1556,1.1564,1.1589,1.1617,1.1615,1.1647,1.1663,1.1695,1.1705,1.173,1.1718,1.173,1.1732,1.1735,1.1737,1.1654,1.1734,1.1734,1.1734,1.1734,1.1734,0,1.1506,1.1518,1.1545,1.1572,1.1595,1.1584,1.1605,1.1623,1.1653,1.167,1.1692,1.1725,1.1752,1.176,1.1785,1.1803,1.1798,1.1809,1.1807,1.1809,1.1748,1.1737,1.1813,1.1813,1.1813,1.1813,1.1813,1.1813,1.155,1.1592,1.1595,1.1643,1.1654,1.1686,1.1699,1.1715,1.1728,1.1766,1.1789,1.1794,1.1807,1.1833,1.1856,1.1858,1.1867,1.188,1.1879,1.1821,1.1813,1.1806,1.1796,1.1882,1.1882,1.1938,1.1938,1.1939]},{"header":{"parameterUnit":"m.s-1","parameterCategory":1,"la1":30.2991,"la2":30.254,"lo1":-89.0895,"lo2":-89.0444,"dy":0.0017,"dx":0.0017,"nx":28,"ny":28,"refTime":"2025-12-11T09:00:00:Z","depth":0,"parameterNumber":3,"parameterNumberName":"V-component_of_WINDS"},"data":[0,0,0,0,0,0,0,0,0,0,0,0,0,0,0,0,0,0,0,0,0,0,0,0,0,0,0,0,0,0,0,0,0,0,0,0,0,0,0,0,0,0,0,0,0,0,0,0,0,0,0,0,0,0,0,0,0,0,2.8898,2.8901,0,2.9141,2.9143,2.9146,2.9177,2.9175,2.9172,2.917,2.9415,2.9423,2.9432,0,0,0,0,0,0,0,0,0,0,0,0,0,2.8457,2.8465,2.8898,2.8901,2.8904,2.914,2.9144,2.9147,2.9177,2.9175,2.9172,2.9169,2.9412,2.9422,2.9432,0,0,0,0,0,0,0,0,0,0,0,0,0,2.8669,2.8468,2.8897,2.8948,2.8955,2.914,2.9144,2.9148,2.9178,2.9175,2.9171,2.9168,2.9408,2.9421,2.9434,2.9584,0,0,2.9474,2.9479,0,0,0,0,0,0,0,0,2.8657,2.8685,2.8937,2.8945,2.8953,2.9125,2.9078,2.9294,2.9179,2.9093,2.917,2.9166,2.9321,2.9341,2.9394,2.9595,2.9606,2.9475,2.9483,2.9488,2.9492,0,0,0,0,0,0,0,2.8642,2.8675,2.8994,2.8941,2.895,2.8957,2.8983,2.9119,2.9223,2.91,2.9103,2.9132,2.9324,2.9381,2.94,2.9609,2.9474,2.9486,2.9494,2.9499,2.9946,2.995,0,0,0,0,0,0,2.8619,2.8662,2.8986,2.9001,2.8793,2.8968,2.8997,2.9073,2.9222,2.9241,2.9134,2.9132,2.9361,2.9385,2.9408,2.9595,2.9488,2.95,2.9508,2.9942,2.9947,2.9951,0,0,0,0,0,0,2.8609,2.8647,2.8976,2.8833,2.8875,2.8979,2.9064,2.908,2.9137,2.9248,2.9266,2.9174,2.9359,2.939,2.954,2.9603,2.9506,2.9518,2.9937,2.9944,2.9949,2.9967,0,0,0,0,0,0,2.8596,2.8644,2.8703,2.8834,2.8883,2.9106,2.9068,2.9087,2.916,2.9159,2.929,2.9308,2.9359,2.9521,2.9553,2.962,2.9528,2.9932,2.994,2.9947,2.9962,2.9973,2.9983,0,0,0,0,0,2.858,2.8697,2.8706,2.8745,2.8959,2.9109,2.9137,2.9194,2.9165,2.9225,2.9296,2.9304,2.9591,2.9536,2.9573,2.9644,2.9928,2.9938,2.9947,2.9957,2.9971,2.9983,0,0,0,0,0,0,2.857,2.8715,2.8726,2.8889,2.8987,2.9114,2.9191,2.9207,2.9314,2.9309,2.9374,2.9403,2.9551,2.9612,2.9548,2.9797,2.9757,2.9774,2.9752,2.9766,2.9777,2.9759,2.9539,0,0,0,0,0,2.8587,2.8698,2.8818,2.895,2.8999,2.9087,2.9154,2.919,2.9293,2.9334,2.9416,2.9515,2.9627,2.97,2.981,2.997,2.9999,3.0037,3.0048,3.0056,3.007,3.016,3.0178,2.9982,2.9981,2.9981,0,0,2.8622,2.8716,2.8781,2.8951,2.9031,2.9143,2.9121,2.9241,2.9325,2.9352,2.9499,2.9563,2.9677,2.9833,2.9906,2.9889,3.0131,3.0068,3.0074,3.0084,3.0171,3.019,3.0206,2.9988,2.9987,2.9986,0,0,2.8745,2.8827,2.8946,2.9027,2.9148,2.9205,2.9234,2.9359,2.9403,2.9552,2.9575,2.9674,2.9867,2.9947,3.0013,3.0166,3.0177,3.0199,3.0256,3.0343,3.0358,3.0372,3.0427,3.0446,3.0213,3.0213,3.0213,0,2.8774,2.8946,2.9005,2.9125,2.9198,2.9229,2.9349,2.9424,2.9574,2.9624,2.9603,2.9845,2.9924,3.01,3.0137,3.0189,3.0223,3.0185,3.0352,3.0366,3.038,3.0433,3.0454,3.0215,3.0215,3.0214,3.0214,0,2.8975,2.9094,2.9175,2.9321,2.9403,2.9523,2.9599,2.9675,2.9703,2.9763,2.9914,3.0009,3.0139,3.0183,3.0211,3.0363,3.0348,3.0339,3.03,3.04,3.0451,3.0472,3.0218,3.0217,3.0216,3.0216,0,0,2.9099,2.9276,2.9305,2.9372,2.9507,2.96,2.972,2.9848,2.9912,3.0014,3.0116,3.0278,3.027,3.0345,3.0382,3.0458,3.0573,3.0439,3.0443,3.0461,3.0746,3.0753,3.0775,3.0581,3.0585,3.0588,3.0736,0,2.9238,2.9455,2.9511,2.9695,2.9805,2.9835,2.994,3.0034,3.0092,3.0193,3.0256,3.037,3.0351,3.0396,3.0473,3.0543,3.0631,3.0533,3.0676,3.068,3.0647,3.0802,3.081,3.0946,3.0757,3.076,3.0762,0,2.9429,2.9537,2.9732,2.9854,2.9902,2.9995,3.0117,3.0213,3.032,3.0356,3.044,3.047,3.0595,3.0549,3.0722,3.0654,3.0715,3.0758,3.0765,3.0781,3.0728,3.0823,3.099,3.1011,3.0794,3.0792,3.0789,0,2.9501,2.9694,2.9836,2.9892,3.0037,3.0102,3.0165,3.0268,3.0342,3.0447,3.0495,3.0614,3.0679,3.0769,3.0829,3.079,3.0997,3.0956,3.1031,3.103,3.1074,3.1071,3.1254,3.1112,3.1112,3.1111,3.1111,0,2.9651,2.9769,2.987,2.9958,3.0091,3.0154,3.0283,3.0347,3.0439,3.0538,3.057,3.0662,3.0737,3.0839,3.0886,3.1022,3.1051,3.1084,3.1095,3.1082,3.1078,3.1124,3.1116,3.1117,3.1116,3.1115,3.1114,0,2.9753,2.9826,2.9983,3.0107,3.0141,3.0234,3.034,3.0426,3.0484,3.061,3.0643,3.0735,3.0857,3.0926,3.1078,3.111,3.1262,3.1268,3.1227,3.1232,3.1303,3.1296,3.1524,3.1557,3.1391,3.1393,3.1394,0,2.9845,2.9937,3.0071,3.0141,3.0205,3.0317,3.0392,3.0457,3.0534,3.0662,3.0731,3.0855,3.0958,3.1151,3.1231,3.1348,3.1357,3.1429,3.1375,3.1359,3.1359,3.1354,3.1363,3.1439,3.144,3.1441,3.1442,0,2.9999,3.0031,3.0139,3.0259,3.0348,3.0446,3.0543,3.0598,3.0678,3.0763,3.0889,3.0968,3.1125,3.1247,3.1371,3.1434,3.1452,3.1458,3.1482,3.147,3.1442,3.1459,3.1253,3.1453,3.1452,3.1451,3.1451,3.145,3.01,3.0183,3.0291,3.041,3.049,3.058,3.0666,3.0736,3.0842,3.0976,3.1007,3.1139,3.1243,3.1411,3.1477,3.1581,3.1568,3.1602,3.1611,3.1618,3.1621,3.1425,3.1603,3.1603,3.1603,3.1602,3.1602,0,3.0257,3.0328,3.0436,3.0572,3.0665,3.0674,3.0782,3.0859,3.0975,3.1071,3.1171,3.1316,3.1434,3.1523,3.1645,3.171,3.1721,3.174,3.1736,3.1751,3.1625,3.1593,3.1729,3.1729,3.1729,3.1729,3.1729,3.1729,3.035,3.0491,3.0535,3.0716,3.0785,3.0916,3.0977,3.106,3.1136,3.1296,3.1396,3.1453,3.1546,3.1674,3.1783,3.1806,3.185,3.1867,3.1891,3.1773,3.1759,3.1746,3.1717,3.1876,3.1876,3.2008,3.2009,3.201]}]]